This demonstration page uses our WeatherBlox Daily Observations layout. Learn more.

Left ArrowRight Arrow

Hourly Observations for July 27, 2016

Temp ( °F °C ) Dew Point ( °F °C ) Humidity (%) Winds ( mph kmh ) Pressure ( in mb ) Visibility ( mi km ) Precip ( " mm )
12:59 am 00:59 Mostly Cloudy 80 26.7 73 22.8 79 79 SSW 5 7 29.95 1014 10 16 0.00 0.00
1:26 am 01:26 Mostly Cloudy with Thunderstorms 80 26.7 73 22.8 79 79 SSW 5 7 29.94 1014 10 16 0.00 0.00
1:59 am 01:59 Mostly Cloudy with Thunderstorms 81 27.2 73 22.8 77 77 SSW 8 13 29.93 1014 10 16 0.00 0.00
2:44 am 02:44 Mostly Cloudy with Light Rain 81 27.2 73 22.8 77 77 W 7 11 29.94 1014 9 14 0.00 0.03
2:59 am 02:59 Mostly Cloudy 81 27.2 74 23.3 79 79 W 7 11 29.95 1014 9 14 0.00 0.03
3:59 am 03:59 Mostly Cloudy 80 26.7 74 23.3 82 82 W 3 6 29.94 1014 9 14 0.00 0.03
4:59 am 04:59 Mostly Cloudy 80 26.7 75 23.9 85 85 WSW 3 6 29.93 1014 8 13 0.00 0.00
5:59 am 05:59 Partly Cloudy 79 26.1 75 23.9 88 88 WSW 5 7 29.94 1014 8 13 0.00 0.00
6:59 am 06:59 Partly Cloudy 80 26.7 76 24.4 87 87 WNW 5 7 29.95 1014 7 11 0.00 0.00
7:59 am 07:59 Partly Cloudy 81 27.2 76 24.4 85 85 W 8 13 29.97 1015 7 11 0.00 0.00
8:59 am 08:59 Mostly Sunny 82 27.8 76 24.4 82 82 W 6 9 29.97 1015 7 11 0.00 0.00
9:59 am 09:59 Mostly Sunny 84 28.9 75 23.9 74 74 WNW 8 13 29.96 1015 7 11 0.00 0.00
10:59 am 10:59 Mostly Sunny 87 30.6 73 22.8 63 63 VRB 6 9 29.97 1015 8 13 0.00 0.00
11:59 am 11:59 Mostly Sunny 90 32.2 73 22.8 58 58 NW 6 9 29.96 1015 9 14 0.00 0.00
12:59 pm 12:59 Mostly Sunny 91 32.8 71 21.7 52 52 W 7 11 29.96 1015 10 16 0.00 0.00
1:59 pm 13:59 Mostly Sunny 92 33.3 69 20.6 47 47 WNW 7 11 29.94 1014 10 16 0.00 0.00
2:59 pm 14:59 Mostly Sunny 93 33.9 70 21.1 47 47 WNW 8 13 29.93 1013 10 16 0.00 0.00
3:59 pm 15:59 Mostly Sunny 94 34.4 73 22.8 51 51 W 6 9 29.92 1013 9 14 0.00 0.00
4:59 pm 16:59 Mostly Sunny 94 34.4 76 24.4 56 56 NE 9 15 29.91 1013 8 13 0.00 0.00
5:59 pm 17:59 Mostly Sunny 92 33.3 75 23.9 58 58 ENE 7 11 29.89 1012 8 13 0.00 0.00
6:59 pm 18:59 Partly Cloudy 89 31.7 75 23.9 63 63 E 5 7 29.91 1013 7 11 0.00 0.00
7:59 pm 19:59 Mostly Cloudy 87 30.6 75 23.9 67 67 NNE 6 9 29.92 1013 7 11 0.00 0.00
8:59 pm 20:59 Mostly Cloudy 86 30 76 24.4 72 72 ESE 5 7 29.92 1013 8 13 0.00 0.00
9:59 pm 21:59 Mostly Cloudy 87 30.6 77 25 72 72 Calm 29.91 1013 7 11 0.00 0.00
10:59 pm 22:59 Mostly Cloudy 86 30 77 25 75 75 ESE 5 7 29.93 1014 7 11 0.00 0.00
11:59 pm 23:59 Mostly Cloudy 84 28.9 77 25 80 80 S 6 9 29.93 1014 8 13 0.00 0.00

Powered by AerisWeather